Regional Weather Roundup
Issued by NWS

Home | Current Version | Previous Version | Text Only | Print | Product List | Glossary On
Versions: 1 2 3 4 5 6 7 8 9 10 11 12 13 14 15 16 17 18 19 20 21 22 23 24 25 26 27 28 29 30 31 32 33 34 35 36 37 38 39 40 41 42 43 44 45 46 47 48 49 50
000
ASUS45 KABQ 181110
RWRNM
WEATHER ROUNDUP FOR NEW MEXICO
NATIONAL WEATHER SERVICE ALBUQUERQUE NM
500 AM MDT SAT APR 18 2015

NOTE: "FAIR" MEANS FEW OR NO CLOUDS BELOW 12,000 FEET AGL WITH NO
       SIGNIFICANT WEATHER OR OBSTRUCTIONS TO VISION.

      THIS PRODUCT IS RELEASED AS TWO VERSIONS.  ONE VERSION NEAR
      THE TOP OF THE HOUR CONTAINING PRELIMINARY DATA FROM ALBUQUERQUE
      AND OTHER STATIONS.  A FINAL VERSION WITH ADDITIONAL DATA IS
      ISSUED ABOUT 10 MINUTES AFTER THE HOUR.

NMZ501-503-504-510>518-181200-
NORTHWEST PLATEAU/NORTHCENTRAL MOUNTAINS

CITY           SKY/WX    TMP DP  RH WIND       PRES   REMARKS
FARMINGTON     CLOUDY    32  32 100 CALM      30.01R FOG
LOS ALAMOS     MIX PCPN  29  29 100 N6        29.99S VSB 1   WCI  23
SANTA FE       LGT SNOW  32  30  92 N3        29.98S VSB 1
ANGEL FIRE     CLOUDY    22  17  78 CALM      29.99F

$$
NMZ402-403-502-505>509-181200-
WESTCENTRAL MOUNTAINS/SOUTHWEST MOUNTAINS

CITY           SKY/WX    TMP DP  RH WIND       PRES   REMARKS
GALLUP         MOCLDY    38  24  57 SW9       30.01S WCI  31
GRANTS         CLOUDY    41  26  55 W14G22    30.00F
SILVER CITY      N/A     37  10  32 NW10      30.05S WCI  30

$$
NMZ407-409-411-412-181200-
SOUTHERN DESERTS

CITY           SKY/WX    TMP DP  RH WIND       PRES   REMARKS
LORDSBURG      FAIR      34   9  35 S5        30.04S WCI  30
DEMING         CLEAR     38  11  32 SW7       30.04R WCI  33
LAS CRUCES     PTCLDY    37   8  30 W5        30.02F WCI  33
HOLLOMAN AFB   PTCLDY    38  18  44 NE6       29.97F WCI  33
ALAMOGORDO     PTCLDY    39  19  45 SE6       29.98F WCI  35
T OR C         CLEAR     43  18  36 W3        30.00S

$$
NMZ519>523-181200-
CENTRAL VALLEYS/CENTRAL HIGHLANDS

CITY           SKY/WX    TMP DP  RH WIND       PRES   REMARKS
ALBUQUERQUE    MOCLDY    37  25  61 SE6       29.99F WCI  32
DOUBLE EAGLE   CLOUDY    32  26  77 CALM      29.99F
MORIARTY ARPT  FAIR      20  14  79 NE5       29.99F WCI  13
CLINES CORNERS PTCLDY    27  22  81 W7        29.95F WCI  19
BELEN          CLOUDY    32  24  71 CALM      29.99F
SOCORRO        FAIR      35  21  56 SE6       30.00S WCI  30

$$
NMZ524>526-539-540-181200-
SOUTHCENTRAL MOUNTAINS

CITY           SKY/WX    TMP DP  RH WIND       PRES   REMARKS
RUIDOSO        CLEAR     34  14  44 SE7       30.04S WCI  28

$$
NMZ527>531-181200-
NORTHEAST HIGHLANDS/NORTHEAST PLAINS

CITY           SKY/WX    TMP DP  RH WIND       PRES   REMARKS
LAS VEGAS      MOCLDY    28  17  63 VRB3      29.96F
RATON          MOCLDY    30  22  72 NE8       29.94F WCI  22
CLAYTON        PTCLDY    40  28  62 NW13      29.92F WCI  32

$$
NMZ532>537-181200-
EASTCENTRAL PLAINS

CITY           SKY/WX    TMP DP  RH WIND       PRES   REMARKS
TUCUMCARI      CLEAR     37  18  46 SW9       29.94F WCI  30
CANNON AFB     NOT AVBL
CLOVIS AIRPORT CLEAR     34  21  60 NE6       29.97S WCI  29

$$
NMZ028-029-538-181200-
SOUTHEAST PLAINS

CITY           SKY/WX    TMP DP  RH WIND       PRES   REMARKS
ROSWELL        CLEAR     41  29  62 W5        29.98F
ARTESIA        CLEAR     43  27  52 W10       29.99S
CARLSBAD       PTCLDY    45  26  47 W8        29.97S
HOBBS          CLEAR     45  32  61 N10       29.97F


$$



USA.gov is the U.S. government's official web portal to all federal, state and local government web resources and services.